Weather Roundup
Issued by NWS

Home | Current Version | Previous Version | Text Only | Print | Product List | Glossary On
Versions: 1 2 3 4 5 6 7 8 9 10 11 12 13 14 15 16 17 18 19 20 21 22 23 24 25 26 27 28 29 30 31 32 33 34 35 36 37 38 39 40 41 42 43 44 45 46 47 48 49 50
000
NZUS93 KARX 282210
HRRWXR

CURRENT HOURLY OBSERVATIONS ACROSS
MUCH OF THE UPPER MISSISSIPPI VALLEY
NATIONAL WEATHER SERVICE LA CROSSE WI
500 PM CDT MON JUL 28 2014


...SOUTHEAST MINNESOTA...


CITY           SKY/WX    TMP DP  RH WIND       PRES   REMARKS
ROCHESTER      PTSUNNY   74  51  44 NW10      30.18F
ROCHESTER/MAYO MOCLDY    71  46  41 N6        30.17S
WINONA         SUNNY     73  48  40 NW7       30.14F
AUSTIN         PTSUNNY   72  52  49 N7        30.17F
ALBERT LEA     CLOUDY    72  54  53 NW6       30.19S
DODGE CENTER   MOSUNNY   72  55  56 N6        30.18S
PRESTON        PTSUNNY   68  58  71 NW6       30.18S
OWATONNA       PTSUNNY   73  52  46 NW8       30.18S
FARIBAULT      MOSUNNY   75  46  35 NW5       30.18S
$$

...ELSEWHERE IN MINNESOTA...


CITY           SKY/WX    TMP DP  RH WIND       PRES   REMARKS
MINNEAPOLIS    MOSUNNY   77  52  41 W8G22     30.15F
INTNL FALLS    PTSUNNY   74  55  51 NW9       30.13F
DULUTH         PTSUNNY   73  54  51 NW8       30.13S
RED WING       PTSUNNY   75  48  38 N6        30.14S
REDWOOD FALLS  CLOUDY    76  51  41 NW8       30.21S
MANKATO        MOSUNNY   73  50  43 N13       30.19S
WORTHINGTON    MOSUNNY   72  54  53 N10       30.24F
FAIRMONT       MOSUNNY   73  54  49 NW9       30.20F
$$

...SOUTHWEST WISCONSIN...


CITY           SKY/WX    TMP DP  RH WIND       PRES   REMARKS
LA CROSSE      SUNNY     76  49  38 NW9       30.12F
PRAIRIE DU CHI PTSUNNY   73  45  36 W8        30.13F
BOSCOBEL       PTSUNNY   76  51  41 NW10      30.13F
LONE ROCK      CLOUDY    77  53  43 NW9       30.12S
PLATTEVILLE    PTSUNNY   72  51  47 NW9       30.15S
FORT MC COY    PTSUNNY   74  46  36 NW10G18   30.13S
CAMP DOUGLAS   PTSUNNY   72  54  53 NW6       30.11F
VIROQUA        CLOUDY    71  52  50 NW9       30.15S
WIS DELLS      MOSUNNY   73  47  38 NW10      30.11S
$$

...ELSEWHERE IN WISCONSIN...


CITY           SKY/WX    TMP DP  RH WIND       PRES   REMARKS
MILWAUKEE      PTSUNNY   64  50  60 E7        30.09S
MADISON        PTSUNNY   73  51  46 NW9G20    30.10S
GREEN BAY      CLOUDY    72  54  53 N8        30.05S
EAU CLAIRE     SUNNY     75  50  41 NW13      30.13S
BLACK RVR FLS  FAIR      76  46  33 NW8       30.12S
MEDFORD        CLOUDY    68  51  54 NW13      30.12S
WAUSAU         CLOUDY    71  50  47 NW13      30.08S
WIS RAPIDS     MOSUNNY   74  52  46 NW13      30.11S
MARSHFIELD     MOSUNNY   73  52  47 NW14G23   30.11S
RICE LAKE      MOSUNNY   73  51  46 NW9       30.16S
$$

...NORTHEAST IOWA...


CITY           SKY/WX    TMP DP  RH WIND       PRES   REMARKS
WATERLOO       PTSUNNY   73  54  51 N8        30.15F
DUBUQUE        CLOUDY    70  53  54 NW9       30.15F
DECORAH        MOSUNNY   72  52  49 NW9       30.15S
MASON CITY     CLOUDY    72  54  53 N12       30.19F
CHARLES CITY   PTSUNNY   72  54  53 VRB5      30.18S
OELWEIN        PTSUNNY   72  54  53 NW5G14    30.17S
$$

...ELSEWHERE IN IOWA...


CITY           SKY/WX    TMP DP  RH WIND       PRES   REMARKS
DES MOINES     PTSUNNY   73  57  57 N5        30.18S
IOWA CITY      PTSUNNY   73  52  47 NW5       30.16S
FORT DODGE     CLOUDY    73  57  56 N6        30.20F
MARSHALLTOWN   CLOUDY    72  57  59 NW9       30.17F
CEDAR RAPIDS   CLOUDY    72  51  47 N6        30.15S
$$

...NORTHERN ILLINOIS...


CITY           SKY/WX    TMP DP  RH WIND       PRES   REMARKS
CHICAGO-OHARE  MOSUNNY   71  48  43 NE8       30.09R
DUPAGE         CLOUDY    70  49  47 N8        30.09S
CHICAGO-MIDWAY MOSUNNY   72  50  45 NE12      30.08S
MOLINE         CLOUDY    72  49  44 N8        30.14S
ROCKFORD       PTSUNNY   73  48  41 N9        30.12S
STERLING       CLOUDY    73  52  46 N8        30.13S
PEORIA         PTSUNNY   72  50  45 N8        30.12S
$$

NOTE: "FAIR" INDICATES FEW OR NO CLOUDS BELOW 12,000 FEET WITH NO
SIGNIFICANT WEATHER AND/OR OBSTRUCTIONS TO VISIBILITY. WIND
SPEEDS ARE IN MILES-PER-HOUR.



USA.gov is the U.S. government's official web portal to all federal, state and local government web resources and services.